Time,TemperatureF,DewpointF,PressureIn,WindDirection,WindDirectionDegrees,WindSpeedMPH,WindSpeedGustMPH,Humidity,HourlyPrecipIn,Conditions,Clouds,dailyrainin,SolarRadiationWatts/m^2,SoftwareType,DateUTC
2013-01-28 00:00:00,48.3,40.7,29.98,ENE,62,0.0,0.0,75,0.00,,,0.00,0,Wunderground v.1.15,2013-01-28 08:00:00,
2013-01-28 00:05:00,48.3,41.1,29.98,ENE,62,0.0,0.0,76,0.00,,,0.00,0,Wunderground v.1.15,2013-01-28 08:05:00,
2013-01-28 00:15:00,48.4,41.5,29.98,ENE,62,0.0,0.0,77,0.00,,,0.00,0,Wunderground v.1.15,2013-01-28 08:15:00,
2013-01-28 00:25:00,48.3,41.4,29.98,ENE,62,0.0,0.0,77,0.00,,,0.00,0,Wunderground v.1.15,2013-01-28 08:25:00,
2013-01-28 00:35:00,48.5,42.0,29.98,WSW,255,0.0,0.0,78,0.00,,,0.00,0,Wunderground v.1.15,2013-01-28 08:35:00,
2013-01-28 00:40:00,48.4,41.9,29.98,NNW,338,0.0,0.0,78,0.00,,,0.00,0,Wunderground v.1.15,2013-01-28 08:40:00,
2013-01-28 00:50:00,48.4,41.9,29.98,WNW,293,0.0,0.0,78,0.00,,,0.00,0,Wunderground v.1.15,2013-01-28 08:50:00,
2013-01-28 00:55:00,48.3,41.8,29.98,WNW,293,0.0,0.0,78,0.00,,,0.00,0,Wunderground v.1.15,2013-01-28 08:55:00,
2013-01-28 01:05:00,47.8,41.3,29.98,SW,222,0.0,1.0,78,0.00,,,0.00,0,Wunderground v.1.15,2013-01-28 09:05:00,
2013-01-28 01:15:00,47.5,40.6,29.98,NW,306,0.0,0.0,77,0.00,,,0.00,0,Wunderground v.1.15,2013-01-28 09:15:00,
2013-01-28 01:25:00,47.4,40.2,29.98,SSW,211,0.0,0.0,76,0.00,,,0.00,0,Wunderground v.1.15,2013-01-28 09:25:00,
2013-01-28 01:35:00,47.2,39.3,29.98,NW,309,2.0,2.0,74,0.00,,,0.00,0,Wunderground v.1.15,2013-01-28 09:35:00,
2013-01-28 01:40:00,47.0,38.8,29.99,WNW,300,0.0,0.0,73,0.00,,,0.00,0,Wunderground v.1.15,2013-01-28 09:40:00,
2013-01-28 01:50:00,46.8,38.2,29.99,WNW,292,0.0,0.0,72,0.00,,,0.00,0,Wunderground v.1.15,2013-01-28 09:50:00,
2013-01-28 01:55:00,46.6,38.1,29.99,WNW,292,0.0,0.0,72,0.00,,,0.00,0,Wunderground v.1.15,2013-01-28 09:55:00,
2013-01-28 02:00:00,46.5,37.6,29.99,WNW,292,0.0,0.0,71,0.00,,,0.00,0,Wunderground v.1.15,2013-01-28 10:00:00,
2013-01-28 02:05:00,46.3,37.8,30.00,WNW,292,0.0,0.0,72,0.00,,,0.00,0,Wunderground v.1.15,2013-01-28 10:05:00,
2013-01-28 02:15:00,45.9,37.0,30.00,WNW,292,0.0,0.0,71,0.00,,,0.00,0,Wunderground v.1.15,2013-01-28 10:15:00,
2013-01-28 02:25:00,45.8,37.3,30.00,WNW,292,0.0,0.0,72,0.00,,,0.00,0,Wunderground v.1.15,2013-01-28 10:25:00,
2013-01-28 02:30:00,45.7,37.2,30.00,WNW,292,0.0,0.0,72,0.00,,,0.00,0,Wunderground v.1.15,2013-01-28 10:30:00,
2013-01-28 02:40:00,45.5,37.7,30.00,WNW,292,0.0,0.0,74,0.00,,,0.00,0,Wunderground v.1.15,2013-01-28 10:40:00,
2013-01-28 02:45:00,45.5,37.7,30.00,WNW,298,1.0,1.0,74,0.00,,,0.00,0,Wunderground v.1.15,2013-01-28 10:45:00,
2013-01-28 02:50:00,45.6,38.1,30.00,WNW,299,0.0,0.0,75,0.00,,,0.00,0,Wunderground v.1.15,2013-01-28 10:50:00,
2013-01-28 03:00:00,45.5,38.4,30.00,WNW,299,0.0,0.0,76,0.00,,,0.00,0,Wunderground v.1.15,2013-01-28 11:00:00,
2013-01-28 03:05:00,45.3,38.2,30.00,WNW,299,0.0,0.0,76,0.00,,,0.00,0,Wunderground v.1.15,2013-01-28 11:05:00,
2013-01-28 03:15:00,45.3,38.2,30.00,WNW,299,0.0,0.0,76,0.00,,,0.00,0,Wunderground v.1.15,2013-01-28 11:15:00,
2013-01-28 03:20:00,44.9,37.8,30.00,WNW,299,0.0,0.0,76,0.00,,,0.00,0,Wunderground v.1.15,2013-01-28 11:20:00,
2013-01-28 03:30:00,44.5,37.4,30.00,WNW,299,0.0,0.0,76,0.00,,,0.00,0,Wunderground v.1.15,2013-01-28 11:30:00,
2013-01-28 03:35:00,44.5,37.7,30.00,WNW,299,0.0,0.0,77,0.00,,,0.00,0,Wunderground v.1.15,2013-01-28 11:35:00,
2013-01-28 03:40:00,44.3,37.5,30.00,WNW,299,0.0,0.0,77,0.00,,,0.00,0,Wunderground v.1.15,2013-01-28 11:40:00,
2013-01-28 03:50:00,44.3,37.5,30.01,WNW,299,0.0,0.0,77,0.00,,,0.00,0,Wunderground v.1.15,2013-01-28 11:50:00,
2013-01-28 03:55:00,44.1,37.3,30.01,WNW,299,0.0,0.0,77,0.00,,,0.00,0,Wunderground v.1.15,2013-01-28 11:55:00,
2013-01-28 04:05:00,43.9,37.5,30.01,WNW,299,0.0,0.0,78,0.00,,,0.00,0,Wunderground v.1.15,2013-01-28 12:05:00,
2013-01-28 04:15:00,43.8,37.1,30.01,WNW,299,0.0,0.0,77,0.00,,,0.00,0,Wunderground v.1.15,2013-01-28 12:15:00,
2013-01-28 04:25:00,43.5,36.8,30.01,WNW,299,0.0,0.0,77,0.00,,,0.00,0,Wunderground v.1.15,2013-01-28 12:25:00,
2013-01-28 04:30:00,43.4,36.7,30.01,WNW,299,0.0,0.0,77,0.00,,,0.00,0,Wunderground v.1.15,2013-01-28 12:30:00,
2013-01-28 04:35:00,43.4,36.7,30.01,WNW,299,0.0,0.0,77,0.00,,,0.00,0,Wunderground v.1.15,2013-01-28 12:35:00,
2013-01-28 04:45:00,43.1,36.4,30.01,WNW,299,0.0,0.0,77,0.00,,,0.00,0,Wunderground v.1.15,2013-01-28 12:45:00,
2013-01-28 04:55:00,43.1,36.4,30.01,WNW,299,0.0,0.0,77,0.00,,,0.00,0,Wunderground v.1.15,2013-01-28 12:55:00,
2013-01-28 05:05:00,42.9,36.2,30.02,WNW,299,0.0,0.0,77,0.00,,,0.00,0,Wunderground v.1.15,2013-01-28 13:05:00,
2013-01-28 05:15:00,42.8,36.1,30.02,WNW,299,0.0,0.0,77,0.00,,,0.00,0,Wunderground v.1.15,2013-01-28 13:15:00,
2013-01-28 05:25:00,42.4,36.7,30.02,WNW,299,0.0,0.0,80,0.00,,,0.00,0,Wunderground v.1.15,2013-01-28 13:25:00,
2013-01-28 05:30:00,42.2,36.2,30.02,WNW,299,0.0,0.0,79,0.00,,,0.00,0,Wunderground v.1.15,2013-01-28 13:30:00,
2013-01-28 05:35:00,42.2,35.8,30.02,WNW,299,0.0,0.0,78,0.00,,,0.00,0,Wunderground v.1.15,2013-01-28 13:35:00,
2013-01-28 05:45:00,42.2,35.5,30.02,WNW,299,0.0,0.0,77,0.00,,,0.00,0,Wunderground v.1.15,2013-01-28 13:45:00,
2013-01-28 05:55:00,42.1,35.4,30.02,WNW,299,0.0,0.0,77,0.00,,,0.00,0,Wunderground v.1.15,2013-01-28 13:55:00,
2013-01-28 06:05:00,42.0,35.3,30.03,WNW,299,0.0,0.0,77,0.00,,,0.00,0,Wunderground v.1.15,2013-01-28 14:05:00,
2013-01-28 06:15:00,42.0,35.3,30.03,WNW,299,0.0,0.0,77,0.00,,,0.00,0,Wunderground v.1.15,2013-01-28 14:15:00,
2013-01-28 06:25:00,41.9,35.2,30.03,WNW,299,0.0,0.0,77,0.00,,,0.00,0,Wunderground v.1.15,2013-01-28 14:25:00,
2013-01-28 06:30:00,41.7,34.7,30.03,WNW,299,0.0,0.0,76,0.00,,,0.00,0,Wunderground v.1.15,2013-01-28 14:30:00,
2013-01-28 06:40:00,41.3,34.0,30.04,WNW,299,0.0,0.0,75,0.00,,,0.00,0,Wunderground v.1.15,2013-01-28 14:40:00,
2013-01-28 06:45:00,41.1,33.4,30.04,WNW,299,0.0,0.0,74,0.00,,,0.00,0,Wunderground v.1.15,2013-01-28 14:45:00,
2013-01-28 06:55:00,41.0,31.6,30.04,WNW,299,0.0,1.0,69,0.00,,,0.00,0,Wunderground v.1.15,2013-01-28 14:55:00,
2013-01-28 07:05:00,41.2,31.4,30.04,WNW,299,0.0,0.0,68,0.00,,,0.00,0,Wunderground v.1.15,2013-01-28 15:05:00,
2013-01-28 07:15:00,41.4,31.6,30.04,WNW,299,0.0,2.0,68,0.00,,,0.00,0,Wunderground v.1.15,2013-01-28 15:15:00,
2013-01-28 07:20:00,41.5,31.4,30.04,WNW,299,1.0,1.0,67,0.00,,,0.00,0,Wunderground v.1.15,2013-01-28 15:20:00,
2013-01-28 07:30:00,41.8,30.5,30.04,WNW,299,0.0,0.0,64,0.00,,,0.00,0,Wunderground v.1.15,2013-01-28 15:30:00,
2013-01-28 07:35:00,42.2,30.9,30.05,WNW,299,0.0,0.0,64,0.00,,,0.00,0,Wunderground v.1.15,2013-01-28 15:35:00,
2013-01-28 07:45:00,42.7,31.4,30.05,WNW,299,0.0,2.0,64,0.00,,,0.00,0,Wunderground v.1.15,2013-01-28 15:45:00,
2013-01-28 07:50:00,42.8,31.5,30.05,WNW,299,0.0,0.0,64,0.00,,,0.00,0,Wunderground v.1.15,2013-01-28 15:50:00,
2013-01-28 08:00:00,42.9,31.6,30.05,WNW,299,0.0,0.0,64,0.00,,,0.00,0,Wunderground v.1.15,2013-01-28 16:00:00,
2013-01-28 08:05:00,43.2,32.6,30.05,WNW,299,0.0,0.0,66,0.00,,,0.00,0,Wunderground v.1.15,2013-01-28 16:05:00,
2013-01-28 08:15:00,43.5,33.6,30.05,WNW,299,0.0,0.0,68,0.00,,,0.00,0,Wunderground v.1.15,2013-01-28 16:15:00,
2013-01-28 08:20:00,43.6,33.4,30.05,WNW,299,0.0,0.0,67,0.00,,,0.00,0,Wunderground v.1.15,2013-01-28 16:20:00,
2013-01-28 08:30:00,44.3,34.0,30.05,WNW,299,0.0,0.0,67,0.00,,,0.00,0,Wunderground v.1.15,2013-01-28 16:30:00,
2013-01-28 08:35:00,44.6,34.3,30.05,WNW,299,0.0,0.0,67,0.00,,,0.00,0,Wunderground v.1.15,2013-01-28 16:35:00,
2013-01-28 08:45:00,45.3,34.2,30.05,WNW,299,0.0,0.0,65,0.00,,,0.00,0,Wunderground v.1.15,2013-01-28 16:45:00,
2013-01-28 08:55:00,46.0,32.0,30.05,WNW,299,0.0,0.0,58,0.00,,,0.00,0,Wunderground v.1.15,2013-01-28 16:55:00,
2013-01-28 09:00:00,46.4,31.1,30.05,WNW,299,0.0,0.0,55,0.00,,,0.00,0,Wunderground v.1.15,2013-01-28 17:00:00,
2013-01-28 09:05:00,46.8,31.5,30.05,WNW,299,0.0,0.0,55,0.00,,,0.00,0,Wunderground v.1.15,2013-01-28 17:05:00,
2013-01-28 09:15:00,47.1,31.3,30.06,WNW,302,0.0,0.0,54,0.00,,,0.00,0,Wunderground v.1.15,2013-01-28 17:15:00,
2013-01-28 09:20:00,47.3,31.0,30.05,WNW,303,0.0,0.0,53,0.00,,,0.00,0,Wunderground v.1.15,2013-01-28 17:20:00,
2013-01-28 09:30:00,47.9,32.0,30.06,WNW,302,0.0,0.0,54,0.00,,,0.00,0,Wunderground v.1.15,2013-01-28 17:30:00,
2013-01-28 09:35:00,48.2,31.9,30.06,WNW,303,0.0,0.0,53,0.00,,,0.00,0,Wunderground v.1.15,2013-01-28 17:35:00,
2013-01-28 09:45:00,48.8,32.9,30.06,NW,306,0.0,2.0,54,0.00,,,0.00,0,Wunderground v.1.15,2013-01-28 17:45:00,
2013-01-28 09:50:00,49.0,32.6,30.07,NW,306,2.0,2.0,53,0.00,,,0.00,0,Wunderground v.1.15,2013-01-28 17:50:00,
2013-01-28 10:00:00,49.7,32.3,30.07,SW,224,0.0,0.0,51,0.00,,,0.00,0,Wunderground v.1.15,2013-01-28 18:00:00,
2013-01-28 10:05:00,50.0,32.1,30.07,SW,221,0.0,0.0,50,0.00,,,0.00,0,Wunderground v.1.15,2013-01-28 18:05:00,
2013-01-28 10:10:00,50.2,31.8,30.07,SW,219,2.0,2.0,49,0.00,,,0.00,0,Wunderground v.1.15,2013-01-28 18:10:00,
2013-01-28 10:20:00,50.6,33.1,30.07,West,281,2.0,2.0,51,0.00,,,0.00,0,Wunderground v.1.15,2013-01-28 18:20:00,
2013-01-28 10:25:00,50.8,32.3,30.07,WSW,250,1.0,2.0,49,0.00,,,0.00,0,Wunderground v.1.15,2013-01-28 18:25:00,
2013-01-28 10:35:00,51.6,33.6,30.07,SW,226,0.0,3.0,50,0.00,,,0.00,0,Wunderground v.1.15,2013-01-28 18:35:00,
2013-01-28 10:40:00,51.9,33.8,30.07,NW,307,0.0,0.0,50,0.00,,,0.00,0,Wunderground v.1.15,2013-01-28 18:40:00,
2013-01-28 10:50:00,52.9,33.7,30.07,WNW,293,4.0,4.0,48,0.00,,,0.00,0,Wunderground v.1.15,2013-01-28 18:50:00,
2013-01-28 11:00:00,53.9,34.6,30.07,NNW,334,4.0,4.0,48,0.00,,,0.00,0,Wunderground v.1.15,2013-01-28 19:00:00,
2013-01-28 11:05:00,54.5,35.2,30.07,WNW,286,5.0,5.0,48,0.00,,,0.00,0,Wunderground v.1.15,2013-01-28 19:05:00,
2013-01-28 11:15:00,55.1,35.2,30.07,NW,317,0.0,2.0,47,0.00,,,0.00,0,Wunderground v.1.15,2013-01-28 19:15:00,
2013-01-28 11:20:00,55.5,35.0,30.07,West,277,0.0,0.0,46,0.00,,,0.00,0,Wunderground v.1.15,2013-01-28 19:20:00,
2013-01-28 11:30:00,56.5,34.8,30.07,WNW,299,4.0,4.0,44,0.00,,,0.00,0,Wunderground v.1.15,2013-01-28 19:30:00,
2013-01-28 11:35:00,56.6,34.9,30.07,SSW,200,0.0,4.0,44,0.00,,,0.00,0,Wunderground v.1.15,2013-01-28 19:35:00,
2013-01-28 11:40:00,56.9,34.6,30.07,NW,321,3.0,3.0,43,0.00,,,0.00,0,Wunderground v.1.15,2013-01-28 19:40:00,
2013-01-28 11:45:00,57.0,33.5,30.06,SW,223,2.0,3.0,41,0.00,,,0.00,0,Wunderground v.1.15,2013-01-28 19:45:00,
2013-01-28 11:55:00,57.5,34.0,30.06,NNW,342,0.0,3.0,41,0.00,,,0.00,0,Wunderground v.1.15,2013-01-28 19:55:00,
2013-01-28 12:00:00,57.8,34.2,30.06,NW,314,1.0,1.0,41,0.00,,,0.00,0,Wunderground v.1.15,2013-01-28 20:00:00,
2013-01-28 12:05:00,58.2,35.2,30.06,NW,325,4.0,4.0,42,0.00,,,0.00,0,Wunderground v.1.15,2013-01-28 20:05:00,
2013-01-28 12:15:00,59.0,35.9,30.06,North,5,6.0,6.0,42,0.00,,,0.00,0,Wunderground v.1.15,2013-01-28 20:15:00,
2013-01-28 12:20:00,59.0,35.9,30.06,NW,305,5.0,5.0,42,0.00,,,0.00,0,Wunderground v.1.15,2013-01-28 20:20:00,
2013-01-28 12:30:00,59.0,34.7,30.05,NNW,327,4.0,4.0,40,0.00,,,0.00,0,Wunderground v.1.15,2013-01-28 20:30:00,
2013-01-28 12:35:00,59.1,35.4,30.05,NW,316,0.0,4.0,41,0.00,,,0.00,0,Wunderground v.1.15,2013-01-28 20:35:00,
2013-01-28 12:45:00,59.3,35.0,30.06,NNW,328,4.0,4.0,40,0.00,,,0.00,0,Wunderground v.1.15,2013-01-28 20:45:00,
2013-01-28 12:55:00,58.3,32.8,30.05,WNW,288,0.0,2.0,38,0.00,,,0.00,0,Wunderground v.1.15,2013-01-28 20:55:00,
2013-01-28 13:05:00,57.2,30.5,30.05,SW,231,6.0,6.0,36,0.00,,,0.00,0,Wunderground v.1.15,2013-01-28 21:05:00,
2013-01-28 13:15:00,58.6,36.7,30.05,WNW,283,3.0,3.0,44,0.00,,,0.00,0,Wunderground v.1.15,2013-01-28 21:15:00,
2013-01-28 13:25:00,58.7,37.4,30.05,West,260,3.0,3.0,45,0.00,,,0.00,0,Wunderground v.1.15,2013-01-28 21:25:00,
2013-01-28 13:35:00,58.7,36.2,30.05,WNW,301,2.0,2.0,43,0.00,,,0.00,0,Wunderground v.1.15,2013-01-28 21:35:00,
2013-01-28 13:40:00,58.5,37.2,30.05,WNW,296,5.0,5.0,45,0.00,,,0.00,0,Wunderground v.1.15,2013-01-28 21:40:00,
2013-01-28 13:45:00,58.8,35.1,30.05,West,272,4.0,5.0,41,0.00,,,0.00,0,Wunderground v.1.15,2013-01-28 21:45:00,
2013-01-28 13:55:00,58.9,36.4,30.05,WSW,256,4.0,4.0,43,0.00,,,0.00,0,Wunderground v.1.15,2013-01-28 21:55:00,
2013-01-28 14:05:00,57.9,36.1,30.05,WNW,282,6.0,6.0,44,0.00,,,0.00,0,Wunderground v.1.15,2013-01-28 22:05:00,
2013-01-28 14:15:00,58.0,36.8,30.05,West,277,3.0,7.0,45,0.00,,,0.00,0,Wunderground v.1.15,2013-01-28 22:15:00,
2013-01-28 14:20:00,57.2,36.0,30.05,WNW,297,9.0,9.0,45,0.00,,,0.00,0,Wunderground v.1.15,2013-01-28 22:20:00,
2013-01-28 14:30:00,57.3,36.7,30.05,West,265,4.0,4.0,46,0.00,,,0.00,0,Wunderground v.1.15,2013-01-28 22:30:00,
2013-01-28 14:40:00,57.9,37.2,30.05,WSW,249,4.0,4.0,46,0.00,,,0.00,0,Wunderground v.1.15,2013-01-28 22:40:00,
2013-01-28 14:50:00,58.0,36.8,30.05,WNW,288,3.0,3.0,45,0.00,,,0.00,0,Wunderground v.1.15,2013-01-28 22:50:00,
2013-01-28 15:00:00,58.3,35.9,30.05,West,277,4.0,4.0,43,0.00,,,0.00,0,Wunderground v.1.15,2013-01-28 23:00:00,
2013-01-28 15:05:00,58.6,35.6,30.05,West,264,2.0,4.0,42,0.00,,,0.00,0,Wunderground v.1.15,2013-01-28 23:05:00,
2013-01-28 15:15:00,57.8,37.1,30.05,West,270,4.0,5.0,46,0.00,,,0.00,0,Wunderground v.1.15,2013-01-28 23:15:00,
2013-01-28 15:20:00,57.5,37.4,30.04,WNW,283,3.0,3.0,47,0.00,,,0.00,0,Wunderground v.1.15,2013-01-28 23:20:00,
2013-01-28 15:30:00,57.6,38.0,30.05,WSW,246,3.0,3.0,48,0.00,,,0.00,0,Wunderground v.1.15,2013-01-28 23:30:00,
2013-01-28 15:40:00,58.0,39.5,30.05,West,275,2.0,2.0,50,0.00,,,0.00,0,Wunderground v.1.15,2013-01-28 23:40:00,
2013-01-28 15:45:00,57.9,39.9,30.05,West,267,3.0,3.0,51,0.00,,,0.00,0,Wunderground v.1.15,2013-01-28 23:45:00,
2013-01-28 15:55:00,58.3,40.2,30.05,West,268,5.0,5.0,51,0.00,,,0.00,0,Wunderground v.1.15,2013-01-28 23:55:00,
2013-01-28 16:00:00,58.3,40.2,30.05,SW,221,2.0,2.0,51,0.00,,,0.00,0,Wunderground v.1.15,2013-01-29 00:00:00,
2013-01-28 16:05:00,58.0,39.5,30.05,WNW,289,3.0,3.0,50,0.00,,,0.00,0,Wunderground v.1.15,2013-01-29 00:05:00,
2013-01-28 16:15:00,57.6,39.1,30.05,West,262,3.0,8.0,50,0.00,,,0.00,0,Wunderground v.1.15,2013-01-29 00:15:00,
2013-01-28 16:20:00,57.2,39.2,30.05,NW,304,3.0,3.0,51,0.00,,,0.00,0,Wunderground v.1.15,2013-01-29 00:20:00,
2013-01-28 16:25:00,56.7,38.8,30.05,WSW,256,2.0,3.0,51,0.00,,,0.00,0,Wunderground v.1.15,2013-01-29 00:25:00,
2013-01-28 16:35:00,54.9,38.6,30.06,WNW,300,4.0,5.0,54,0.00,,,0.00,0,Wunderground v.1.15,2013-01-29 00:35:00,
2013-01-28 16:45:00,54.1,38.3,30.06,WNW,301,4.0,4.0,55,0.00,,,0.00,0,Wunderground v.1.15,2013-01-29 00:45:00,
2013-01-28 16:55:00,53.5,38.2,30.06,WSW,257,3.0,3.0,56,0.00,,,0.00,0,Wunderground v.1.15,2013-01-29 00:55:00,
2013-01-28 17:05:00,53.3,38.4,30.07,WSW,240,2.0,4.0,57,0.00,,,0.00,0,Wunderground v.1.15,2013-01-29 01:05:00,
2013-01-28 17:15:00,52.9,37.2,30.07,WNW,284,3.0,3.0,55,0.00,,,0.00,0,Wunderground v.1.15,2013-01-29 01:15:00,
2013-01-28 17:20:00,52.7,37.4,30.07,WSW,258,0.0,0.0,56,0.00,,,0.00,0,Wunderground v.1.15,2013-01-29 01:20:00,
2013-01-28 17:30:00,52.3,37.1,30.07,WSW,243,0.0,0.0,56,0.00,,,0.00,0,Wunderground v.1.15,2013-01-29 01:30:00,
2013-01-28 17:40:00,52.0,37.2,30.08,WNW,297,2.0,2.0,57,0.00,,,0.00,0,Wunderground v.1.15,2013-01-29 01:40:00,
2013-01-28 17:50:00,51.8,37.5,30.08,WNW,302,2.0,2.0,58,0.00,,,0.00,0,Wunderground v.1.15,2013-01-29 01:50:00,
2013-01-28 17:55:00,51.6,37.3,30.08,NW,308,1.0,2.0,58,0.00,,,0.00,0,Wunderground v.1.15,2013-01-29 01:55:00,
2013-01-28 18:05:00,51.5,36.8,30.08,WNW,302,2.0,2.0,57,0.00,,,0.00,0,Wunderground v.1.15,2013-01-29 02:05:00,
2013-01-28 18:10:00,51.4,37.1,30.09,NW,311,2.0,2.0,58,0.00,,,0.00,0,Wunderground v.1.15,2013-01-29 02:10:00,
2013-01-28 18:20:00,51.2,36.9,30.09,NW,317,0.0,0.0,58,0.00,,,0.00,0,Wunderground v.1.15,2013-01-29 02:20:00,
2013-01-28 18:30:00,51.1,37.3,30.09,WNW,294,2.0,2.0,59,0.00,,,0.00,0,Wunderground v.1.15,2013-01-29 02:30:00,
2013-01-28 18:40:00,51.1,37.7,30.10,WNW,299,1.0,1.0,60,0.00,,,0.00,0,Wunderground v.1.15,2013-01-29 02:40:00,
2013-01-28 18:45:00,51.2,38.2,30.11,NW,325,2.0,2.0,61,0.00,,,0.00,0,Wunderground v.1.15,2013-01-29 02:45:00,
2013-01-28 18:55:00,51.4,38.4,30.11,NW,311,0.0,0.0,61,0.00,,,0.00,0,Wunderground v.1.15,2013-01-29 02:55:00,
2013-01-28 19:05:00,51.2,38.6,30.11,NW,311,0.0,0.0,62,0.00,,,0.00,0,Wunderground v.1.15,2013-01-29 03:05:00,
2013-01-28 19:15:00,51.0,38.0,30.11,NW,313,0.0,0.0,61,0.00,,,0.00,0,Wunderground v.1.15,2013-01-29 03:15:00,
2013-01-28 19:25:00,50.8,37.8,30.12,NW,321,1.0,1.0,61,0.00,,,0.00,0,Wunderground v.1.15,2013-01-29 03:25:00,
2013-01-28 19:35:00,50.4,37.4,30.11,NW,321,0.0,0.0,61,0.00,,,0.00,0,Wunderground v.1.15,2013-01-29 03:35:00,
2013-01-28 19:45:00,50.1,37.6,30.11,NW,321,0.0,0.0,62,0.00,,,0.00,0,Wunderground v.1.15,2013-01-29 03:45:00,
2013-01-28 19:55:00,49.4,36.9,30.11,NW,321,0.0,0.0,62,0.00,,,0.00,0,Wunderground v.1.15,2013-01-29 03:55:00,
2013-01-28 20:05:00,48.8,37.2,30.11,NW,321,0.0,0.0,64,0.00,,,0.00,0,Wunderground v.1.15,2013-01-29 04:05:00,
2013-01-28 20:15:00,48.4,37.2,30.11,NW,321,0.0,0.0,65,0.00,,,0.00,0,Wunderground v.1.15,2013-01-29 04:15:00,
2013-01-28 20:20:00,48.2,37.4,30.12,NW,321,0.0,0.0,66,0.00,,,0.00,0,Wunderground v.1.15,2013-01-29 04:20:00,
2013-01-28 20:30:00,47.9,37.1,30.12,NW,321,0.0,0.0,66,0.00,,,0.00,0,Wunderground v.1.15,2013-01-29 04:30:00,
2013-01-28 20:35:00,47.7,36.9,30.12,NW,321,0.0,0.0,66,0.00,,,0.00,0,Wunderground v.1.15,2013-01-29 04:35:00,
2013-01-28 20:40:00,47.6,37.2,30.12,NW,321,0.0,0.0,67,0.00,,,0.00,0,Wunderground v.1.15,2013-01-29 04:40:00,
2013-01-28 20:50:00,47.3,37.3,30.12,NW,321,0.0,0.0,68,0.00,,,0.00,0,Wunderground v.1.15,2013-01-29 04:50:00,
2013-01-28 21:05:00,47.1,36.7,30.12,NW,321,0.0,0.0,67,0.00,,,0.00,0,Wunderground v.1.15,2013-01-29 05:05:00,
2013-01-28 21:15:00,46.9,36.1,30.12,NW,321,0.0,0.0,66,0.00,,,0.00,0,Wunderground v.1.15,2013-01-29 05:15:00,
2013-01-28 21:20:00,46.7,35.9,30.12,NW,321,0.0,0.0,66,0.00,,,0.00,0,Wunderground v.1.15,2013-01-29 05:20:00,
2013-01-28 21:30:00,46.4,36.0,30.12,NW,321,0.0,0.0,67,0.00,,,0.00,0,Wunderground v.1.15,2013-01-29 05:30:00,
2013-01-28 21:35:00,46.2,35.5,30.12,NW,321,0.0,0.0,66,0.00,,,0.00,0,Wunderground v.1.15,2013-01-29 05:35:00,
2013-01-28 21:45:00,45.9,35.6,30.12,NW,321,0.0,0.0,67,0.00,,,0.00,0,Wunderground v.1.15,2013-01-29 05:45:00,
2013-01-28 21:50:00,45.7,35.4,30.12,NW,321,0.0,0.0,67,0.00,,,0.00,0,Wunderground v.1.15,2013-01-29 05:50:00,
2013-01-28 22:00:00,45.5,35.2,30.12,NW,321,1.0,1.0,67,0.00,,,0.00,0,Wunderground v.1.15,2013-01-29 06:00:00,
2013-01-28 22:05:00,45.3,35.0,30.12,NW,321,0.0,1.0,67,0.00,,,0.00,0,Wunderground v.1.15,2013-01-29 06:05:00,
2013-01-28 22:15:00,45.2,34.5,30.12,NW,321,0.0,2.0,66,0.00,,,0.00,0,Wunderground v.1.15,2013-01-29 06:15:00,
2013-01-28 22:20:00,45.3,34.6,30.13,NW,321,0.0,0.0,66,0.00,,,0.00,0,Wunderground v.1.15,2013-01-29 06:20:00,
2013-01-28 22:30:00,45.1,34.8,30.13,NW,321,0.0,0.0,67,0.00,,,0.00,0,Wunderground v.1.15,2013-01-29 06:30:00,
2013-01-28 22:35:00,45.0,34.7,30.13,NW,321,0.0,0.0,67,0.00,,,0.00,0,Wunderground v.1.15,2013-01-29 06:35:00,
2013-01-28 22:45:00,44.6,34.3,30.13,NW,321,0.0,0.0,67,0.00,,,0.00,0,Wunderground v.1.15,2013-01-29 06:45:00,
2013-01-28 22:50:00,44.4,34.5,30.13,NW,321,0.0,0.0,68,0.00,,,0.00,0,Wunderground v.1.15,2013-01-29 06:50:00,
2013-01-28 23:00:00,44.3,34.4,30.14,NW,321,0.0,0.0,68,0.00,,,0.00,0,Wunderground v.1.15,2013-01-29 07:00:00,
2013-01-28 23:05:00,44.2,34.3,30.14,NW,321,0.0,0.0,68,0.00,,,0.00,0,Wunderground v.1.15,2013-01-29 07:05:00,
2013-01-28 23:15:00,44.0,34.1,30.15,NW,321,0.0,0.0,68,0.00,,,0.00,0,Wunderground v.1.15,2013-01-29 07:15:00,
2013-01-28 23:25:00,43.6,33.7,30.14,NW,321,0.0,0.0,68,0.00,,,0.00,0,Wunderground v.1.15,2013-01-29 07:25:00,
2013-01-28 23:35:00,43.4,33.5,30.15,NW,321,0.0,0.0,68,0.00,,,0.00,0,Wunderground v.1.15,2013-01-29 07:35:00,
2013-01-28 23:45:00,43.2,33.3,30.15,NW,321,2.0,2.0,68,0.00,,,0.00,0,Wunderground v.1.15,2013-01-29 07:45:00,
2013-01-28 23:50:00,43.2,33.3,30.14,NW,321,1.0,1.0,68,0.00,,,0.00,0,Wunderground v.1.15,2013-01-29 07:50:00,